This demonstration page uses our WeatherBlox Daily Observations layout. Learn more.

Left ArrowRight Arrow

Hourly Observations for November 27, 2015

Temp ( °F °C ) Dew Point ( °F °C ) Humidity (%) Winds ( mph kmh ) Pressure ( in mb ) Visibility ( mi km ) Precip ( " mm )
12:09 am 00:09 Mostly Cloudy 22 -5.6 16 -8.9 78 78 N 20 31 30.59 1036 10 16 0.00 0.00
12:53 am 00:53 Mostly Cloudy 21 -6.1 15 -9.4 78 78 N 17 28 30.53 1034 10 16 0.00 0.00
1:53 am 01:53 Clear 20 -6.7 13 -10.6 74 74 N 16 26 30.55 1035 10 16 0.00 0.00
2:53 am 02:53 Mostly Cloudy 20 -6.7 13 -10.6 74 74 N 18 30 30.58 1036 10 16 0.00 0.00
3:53 am 03:53 Cloudy 20 -6.7 14 -10 78 78 N 20 31 30.59 1036 10 16 0.00 0.00
4:53 am 04:53 Cloudy 20 -6.7 13 -10.6 74 74 N 21 33 30.59 1036 10 16 0.00 0.00
5:53 am 05:53 Cloudy 19 -7.2 13 -10.6 77 77 N 18 30 30.62 1037 10 16 0.00 0.00
6:53 am 06:53 Cloudy 19 -7.2 12 -11.1 74 74 N 21 33 30.60 1036 10 16 0.00 0.00
7:53 am 07:53 Cloudy 19 -7.2 12 -11.1 74 74 N 22 35 30.63 1037 10 16 0.00 0.00
8:53 am 08:53 Cloudy 19 -7.2 12 -11.1 74 74 N 16 26 30.65 1038 10 16 0.00 0.00
9:53 am 09:53 Cloudy 20 -6.7 12 -11.1 71 71 N 17 28 30.61 1037 10 16 0.00 0.00
10:53 am 10:53 Cloudy 20 -6.7 13 -10.6 74 74 N 16 26 30.66 1038 10 16 0.00 0.00
11:53 am 11:53 Cloudy 21 -6.1 13 -10.6 71 71 N 18 30 30.63 1037 10 16 0.00 0.00
12:53 pm 12:53 Cloudy 22 -5.6 13 -10.6 68 68 N 17 28 30.61 1037 10 16 0.00 0.00
1:53 pm 13:53 Cloudy 23 -5 14 -10 68 68 N 15 24 30.61 1037 10 16 0.00 0.00
2:53 pm 14:53 Cloudy 24 -4.4 14 -10 65 65 N 16 26 30.60 1036 10 16 0.00 0.00
3:53 pm 15:53 Cloudy 24 -4.4 15 -9.4 68 68 N 16 26 30.60 1036 10 16 0.00 0.00
4:53 pm 16:53 Cloudy 24 -4.4 14 -10 65 65 NNE 14 22 30.60 1036 10 16 0.00 0.00
5:53 pm 17:53 Cloudy 24 -4.4 15 -9.4 68 68 NNE 14 22 30.58 1036 10 16 0.00 0.00
6:53 pm 18:53 Cloudy 24 -4.4 15 -9.4 68 68 NNE 15 24 30.58 1035 10 16 0.00 0.00
7:53 pm 19:53 Cloudy 23 -5 14 -10 68 68 NNE 14 22 30.58 1036 10 16 0.00 0.00
8:53 pm 20:53 Cloudy 24 -4.4 15 -9.4 68 68 NNE 13 20 30.59 1036 10 16 0.00 0.00
9:53 pm 21:53 Cloudy 23 -5 15 -9.4 72 72 NNE 13 20 30.58 1035 10 16 0.00 0.00
10:53 pm 22:53 Cloudy 23 -5 15 -9.4 72 72 NNE 14 22 30.56 1035 10 16 0.00 0.00
11:53 pm 23:53 Cloudy 23 -5 15 -9.4 72 72 NNE 13 20 30.55 1035 10 16 0.00 0.00

Powered by AerisWeather